Change the Weather History Date:

Saturday, September 6, 2014

  Actual Average Record
Temperature  
Mean Temperature 77 °F -  
Max Temperature 91 °F 75 °F 91 °F (2014)
Min Temperature 64 °F 53 °F 39 °F (2000)
Cooling Degree Days 12    
Growing Degree Days 27 (Base 50)    
Moisture  
Dew Point 70 °F    
Average Humidity 82    
Maximum Humidity 94    
Minimum Humidity 51    
Precipitation  
Precipitation 0.33 in - - ()
Sea Level Pressure  
Sea Level Pressure 29.90 in    
Wind  
Wind Speed 10 mph (SSW)    
Max Wind Speed 17 mph    
Max Gust Speed 25 mph    
Visibility 9 miles    
Events Rain , Thunderstorm    
Averages and records for this station are not official NWS values.
T = Trace of Precipitation, MM = Missing Value Source: NWS Daily Summary

Daily Weather History Graph

Daily Weather History Graph

Search for Another Location

Airport or City:

Trip Planner

Search our weather history database for the weather conditions in past years. The results will help you decide how hot, cold, wet, or windy it might be!

Date:

Astronomy

Sep. 06, 2014 Rise Set
Actual Time 6:20 AM EDT 7:15 PM EDT
Civil Twilight 5:52 AM EDT 7:43 PM EDT
Nautical Twilight 5:18 AM EDT 8:17 PM EDT
Astronomical Twilight 4:42 AM EDT 8:52 PM EDT
Moon 5:31 PM EDT (9/6) 3:16 AM EDT (9/6)
Length of Visible Light 13h 51m
Length of Day
12h 54m
Waxing Gibbous, 91% of the Moon is Illuminated
Sep 6
Waxing Gibbous
Sep 8
Full
Sep 15
Last Quarter
Sep 24
New
Oct 1
First Quarter

Hourly Weather History & Observations

Time (EDT) Temp. Heat Index Dew Point Humidity Pressure Visibility Wind Dir Wind Speed Gust Speed Precip Events Conditions
12:01 AM 75.2 °F - 71.6 °F 89% 29.99 in 10.0 mi South 10.4 mph - N/A   Overcast
12:04 AM 75.2 °F - 71.6 °F 89% 29.99 in 10.0 mi South 10.4 mph - N/A   Overcast
12:13 AM 75.2 °F - 71.6 °F 89% 29.98 in 10.0 mi South 10.4 mph - N/A   Overcast
12:58 AM 75.2 °F - 71.8 °F 89% 29.99 in 10.0 mi South 10.4 mph - N/A   Overcast
1:54 AM 75.2 °F - 71.6 °F 89% 29.96 in 10.0 mi South 11.5 mph - N/A   Mostly Cloudy
1:56 AM 75.2 °F - 71.6 °F 89% 29.96 in 10.0 mi South 12.7 mph - N/A   Mostly Cloudy
1:58 AM 75.2 °F - 71.6 °F 89% 29.97 in 10.0 mi South 12.7 mph - N/A   Mostly Cloudy
2:37 AM 75.2 °F - 71.6 °F 89% 29.95 in 10.0 mi South 10.4 mph - N/A   Scattered Clouds
2:58 AM 75.4 °F - 71.6 °F 88% 29.96 in 10.0 mi South 10.4 mph - N/A   Clear
3:58 AM 74.7 °F - 72.1 °F 92% 29.95 in 10.0 mi South 8.1 mph - N/A   Clear
4:58 AM 74.3 °F - 72.5 °F 94% 29.96 in 10.0 mi SSE 6.9 mph - N/A   Partly Cloudy
5:58 AM 74.1 °F - 72.1 °F 94% 29.94 in 10.0 mi South 9.2 mph - N/A   Clear
6:33 AM 73.4 °F - 71.6 °F 94% 29.93 in 8.0 mi SSW 5.8 mph - N/A   Partly Cloudy
6:58 AM 74.1 °F - 72.3 °F 94% 29.94 in 8.0 mi South 10.4 mph - N/A   Partly Cloudy
7:58 AM 75.9 °F - 72.9 °F 90% 29.94 in 10.0 mi South 11.5 mph - N/A   Scattered Clouds
8:58 AM 78.8 °F - 73.4 °F 83% 29.91 in 10.0 mi SSW 9.2 mph - N/A   Scattered Clouds
9:00 AM 78.8 °F - 73.4 °F 83% 29.90 in 10.0 mi SSW 11.5 mph - N/A   Mostly Cloudy
9:17 AM 78.8 °F - 73.4 °F 83% 29.90 in 10.0 mi South 11.5 mph - N/A   Scattered Clouds
9:29 AM 78.8 °F - 73.4 °F 83% 29.90 in 10.0 mi SSW 13.8 mph - N/A   Mostly Cloudy
9:53 AM 78.8 °F - 73.4 °F 83% 29.89 in 10.0 mi South 11.5 mph - N/A   Mostly Cloudy
9:58 AM 79.5 °F - 73.0 °F 80% 29.91 in 10.0 mi SSW 10.4 mph - N/A   Mostly Cloudy
10:30 AM 82.4 °F 88.2 °F 73.4 °F 74% 29.88 in 10.0 mi South 12.7 mph - N/A   Mostly Cloudy
10:58 AM 81.7 °F 86.9 °F 73.0 °F 75% 29.89 in 10.0 mi SSW 12.7 mph 19.6 mph N/A   Scattered Clouds
11:58 AM 84.6 °F 91.4 °F 73.2 °F 69% 29.88 in 10.0 mi SSW 11.5 mph - N/A   Mostly Cloudy
12:58 PM 87.1 °F 94.1 °F 72.9 °F 62% 29.84 in 10.0 mi SSW 13.8 mph 20.7 mph N/A   Scattered Clouds
1:58 PM 88.9 °F 95.6 °F 72.0 °F 57% 29.82 in 10.0 mi SW 15.0 mph 23.0 mph N/A   Scattered Clouds
2:58 PM 90.3 °F 95.7 °F 70.2 °F 51% 29.80 in 10.0 mi SW 17.3 mph 25.3 mph N/A   Mostly Cloudy
3:58 PM 88.9 °F 93.4 °F 69.3 °F 52% 29.79 in 10.0 mi WSW 16.1 mph 23.0 mph N/A   Mostly Cloudy
4:58 PM 85.6 °F 91.1 °F 71.2 °F 62% 29.79 in 10.0 mi SW 12.7 mph - N/A   Mostly Cloudy
5:33 PM 86.0 °F 91.8 °F 71.6 °F 62% 29.76 in 10.0 mi SW 15.0 mph 19.6 mph N/A Thunderstorm Scattered Clouds
5:58 PM 85.3 °F 89.8 °F 70.2 °F 60% 29.79 in 10.0 mi SSW 12.7 mph - N/A Thunderstorm Mostly Cloudy
6:02 PM 84.2 °F 88.4 °F 69.8 °F 62% 29.79 in 10.0 mi SSW 8.1 mph - N/A Thunderstorm Thunderstorm
6:20 PM 82.4 °F 86.3 °F 69.8 °F 66% 29.82 in 1.2 mi NW 15.0 mph 23.0 mph N/A Rain , Thunderstorm Heavy Thunderstorms and Rain
6:21 PM 82.4 °F 87.2 °F 71.6 °F 70% 29.82 in 5.0 mi NW 15.0 mph 23.0 mph N/A Rain , Thunderstorm Light Thunderstorms and Rain
6:42 PM 75.2 °F - 71.6 °F 89% 29.83 in 9.0 mi NW 6.9 mph - N/A Rain Light Rain
6:58 PM 74.8 °F - 71.1 °F 88% 29.86 in 10.0 mi WNW 15.0 mph - 0.12 in   Mostly Cloudy
7:58 PM 71.6 °F - 68.9 °F 91% 29.90 in 10.0 mi NNE 3.5 mph - N/A   Mostly Cloudy
8:58 PM 70.5 °F - 65.3 °F 83% 29.91 in 10.0 mi NNW 3.5 mph - N/A   Scattered Clouds
9:32 PM 69.8 °F - 64.4 °F 83% 29.90 in 10.0 mi NNW 5.8 mph - N/A Rain Light Rain
9:58 PM 68.7 °F - 61.9 °F 79% 29.93 in 8.0 mi NNW 6.9 mph - 0.00 in Rain Light Rain
10:46 PM 64.4 °F - 62.6 °F 94% 29.94 in 7.0 mi NW 8.1 mph - N/A Rain Rain
10:58 PM 64.9 °F - 62.1 °F 90% 29.96 in 6.0 mi North 5.8 mph - 0.10 in Rain Rain
11:10 PM 64.4 °F - 60.8 °F 88% 29.94 in 10.0 mi Variable 3.5 mph - N/A Rain Light Rain
11:12 PM 64.4 °F - 60.8 °F 88% 29.94 in 4.0 mi Variable 3.5 mph - N/A Rain Light Rain
11:24 PM 64.4 °F - 62.6 °F 94% 29.95 in 7.0 mi Calm Calm - N/A Rain Light Rain
11:29 PM 64.4 °F - 62.6 °F 94% 29.95 in 7.0 mi Variable 1.2 mph - N/A Rain Light Rain
11:44 PM 64.4 °F - 62.6 °F 94% 29.95 in 10.0 mi Variable 2.3 mph - N/A Rain Light Rain
11:58 PM 64.0 °F - 62.2 °F 94% 29.96 in 10.0 mi NNW 2.3 mph - 0.11 in Rain Light Rain